Time,TemperatureF,DewpointF,PressureIn,WindDirection,WindDirectionDegrees,WindSpeedMPH,WindSpeedGustMPH,Humidity,HourlyPrecipIn,Conditions,Clouds,dailyrainin,SoftwareType,DateUTC
2013-01-06 00:12:00,48.5,46.0,30.17,WSW,240,0.0,0.0,91,0.00,,,0.00,weatherlink.com 1.10,2013-01-06 08:12:00,
2013-01-06 00:27:00,48.5,46.0,30.16,WSW,240,0.0,0.0,91,0.00,,,0.00,weatherlink.com 1.10,2013-01-06 08:27:00,
2013-01-06 00:42:00,48.6,46.0,30.16,WSW,240,0.0,0.0,92,0.00,,,0.00,weatherlink.com 1.10,2013-01-06 08:42:00,
2013-01-06 00:57:00,48.4,46.0,30.16,WSW,240,0.0,0.0,91,0.00,,,0.00,weatherlink.com 1.10,2013-01-06 08:57:00,
2013-01-06 01:12:00,48.0,46.0,30.17,WSW,240,0.0,0.0,92,0.01,,,0.01,weatherlink.com 1.10,2013-01-06 09:12:00,
2013-01-06 01:27:00,47.8,46.0,30.17,WSW,240,0.0,0.0,92,0.01,,,0.01,weatherlink.com 1.10,2013-01-06 09:27:00,
2013-01-06 01:42:00,47.1,45.0,30.18,WSW,246,3.0,7.0,93,0.02,,,0.02,weatherlink.com 1.10,2013-01-06 09:42:00,
2013-01-06 01:58:00,46.5,45.0,30.18,West,263,0.0,4.0,94,0.02,,,0.02,weatherlink.com 1.10,2013-01-06 09:58:00,
2013-01-06 02:12:00,46.5,45.0,30.17,SE,134,0.0,2.0,94,0.02,,,0.03,weatherlink.com 1.10,2013-01-06 10:12:00,
2013-01-06 02:27:00,46.4,45.0,30.17,SE,134,0.0,0.0,94,0.03,,,0.04,weatherlink.com 1.10,2013-01-06 10:27:00,
2013-01-06 02:42:00,46.3,45.0,30.16,SE,134,0.0,0.0,95,0.02,,,0.04,weatherlink.com 1.10,2013-01-06 10:42:00,
2013-01-06 02:57:00,46.1,45.0,30.17,SE,134,0.0,0.0,94,0.02,,,0.04,weatherlink.com 1.10,2013-01-06 10:57:00,
2013-01-06 03:12:00,45.9,44.0,30.16,SE,134,0.0,0.0,94,0.01,,,0.04,weatherlink.com 1.10,2013-01-06 11:12:00,
2013-01-06 03:28:00,45.6,44.0,30.16,SE,134,0.0,0.0,95,0.00,,,0.04,weatherlink.com 1.10,2013-01-06 11:28:00,
2013-01-06 03:43:00,45.5,44.0,30.16,SE,134,0.0,0.0,95,0.00,,,0.04,weatherlink.com 1.10,2013-01-06 11:43:00,
2013-01-06 03:58:00,45.4,44.0,30.16,SE,134,0.0,0.0,95,0.00,,,0.04,weatherlink.com 1.10,2013-01-06 11:58:00,
2013-01-06 04:13:00,45.4,44.0,30.15,SE,134,0.0,0.0,96,0.00,,,0.04,weatherlink.com 1.10,2013-01-06 12:13:00,
2013-01-06 04:28:00,45.2,44.0,30.15,SE,134,0.0,0.0,95,0.00,,,0.04,weatherlink.com 1.10,2013-01-06 12:28:00,
2013-01-06 04:43:00,45.0,44.0,30.15,SE,134,0.0,0.0,96,0.00,,,0.04,weatherlink.com 1.10,2013-01-06 12:43:00,
2013-01-06 04:58:00,45.7,45.0,30.15,West,259,0.0,4.0,97,0.00,,,0.04,weatherlink.com 1.10,2013-01-06 12:58:00,
2013-01-06 05:13:00,45.8,45.0,30.14,West,259,0.0,0.0,95,0.00,,,0.04,weatherlink.com 1.10,2013-01-06 13:13:00,
2013-01-06 05:28:00,45.4,44.0,30.14,West,259,0.0,1.0,95,0.00,,,0.04,weatherlink.com 1.10,2013-01-06 13:28:00,
2013-01-06 05:43:00,44.9,44.0,30.15,West,259,0.0,0.0,95,0.00,,,0.04,weatherlink.com 1.10,2013-01-06 13:43:00,
2013-01-06 05:58:00,44.4,43.0,30.15,West,259,0.0,0.0,95,0.00,,,0.04,weatherlink.com 1.10,2013-01-06 13:58:00,
2013-01-06 06:28:00,44.7,44.0,30.15,West,259,0.0,0.0,96,0.00,,,0.04,weatherlink.com 1.10,2013-01-06 14:28:00,
2013-01-06 06:43:00,45.2,44.0,30.16,West,259,0.0,2.0,96,0.02,,,0.06,weatherlink.com 1.10,2013-01-06 14:43:00,
2013-01-06 06:58:00,45.4,44.0,30.16,West,268,2.0,4.0,96,0.03,,,0.07,weatherlink.com 1.10,2013-01-06 14:58:00,
2013-01-06 07:13:00,44.9,43.0,30.15,WSW,240,0.0,0.0,94,0.03,,,0.07,weatherlink.com 1.10,2013-01-06 15:13:00,
2013-01-06 07:28:00,43.9,42.0,30.16,WSW,240,0.0,0.0,93,0.03,,,0.07,weatherlink.com 1.10,2013-01-06 15:28:00,
2013-01-06 07:43:00,43.8,43.0,30.16,WSW,240,0.0,0.0,95,0.01,,,0.07,weatherlink.com 1.10,2013-01-06 15:43:00,
2013-01-06 07:58:00,44.6,43.0,30.16,WSW,240,0.0,0.0,95,0.00,,,0.07,weatherlink.com 1.10,2013-01-06 15:58:00,
2013-01-06 08:13:00,45.8,44.0,30.16,West,271,0.0,2.0,94,0.00,,,0.07,weatherlink.com 1.10,2013-01-06 16:13:00,
2013-01-06 08:28:00,46.8,46.0,30.16,West,272,0.0,0.0,95,0.00,,,0.07,weatherlink.com 1.10,2013-01-06 16:28:00,
2013-01-06 08:43:00,48.1,46.0,30.16,WNW,287,0.0,4.0,91,0.00,,,0.07,weatherlink.com 1.10,2013-01-06 16:43:00,
2013-01-06 08:58:00,48.9,47.0,30.16,WNW,292,0.0,0.0,92,0.00,,,0.07,weatherlink.com 1.10,2013-01-06 16:58:00,
2013-01-06 09:28:00,49.6,47.0,30.16,SW,233,0.0,4.0,89,0.00,,,0.07,weatherlink.com 1.10,2013-01-06 17:28:00,
2013-01-06 09:43:00,49.2,46.0,30.17,West,281,9.0,9.0,87,0.00,,,0.07,weatherlink.com 1.10,2013-01-06 17:43:00,
2013-01-06 09:58:00,48.7,45.0,30.17,NW,306,4.0,8.0,87,0.00,,,0.07,weatherlink.com 1.10,2013-01-06 17:58:00,
2013-01-06 10:13:00,48.5,45.0,30.17,WSW,248,0.0,7.0,87,0.00,,,0.07,weatherlink.com 1.10,2013-01-06 18:13:00,
2013-01-06 10:28:00,49.5,46.0,30.16,SSW,201,0.0,9.0,87,0.00,,,0.07,weatherlink.com 1.10,2013-01-06 18:28:00,
2013-01-06 10:43:00,49.9,45.0,30.16,West,259,3.0,6.0,84,0.00,,,0.07,weatherlink.com 1.10,2013-01-06 18:43:00,
2013-01-06 10:58:00,50.2,45.0,30.15,WNW,295,1.0,10.0,82,0.00,,,0.07,weatherlink.com 1.10,2013-01-06 18:58:00,
2013-01-06 11:13:00,50.3,45.0,30.14,SW,232,0.0,7.0,83,0.00,,,0.07,weatherlink.com 1.10,2013-01-06 19:13:00,
2013-01-06 11:28:00,51.3,45.0,30.13,WNW,290,10.0,14.0,78,0.00,,,0.07,weatherlink.com 1.10,2013-01-06 19:28:00,
2013-01-06 11:58:00,52.4,44.0,30.11,WNW,284,0.0,10.0,74,0.00,,,0.07,weatherlink.com 1.10,2013-01-06 19:58:00,
2013-01-06 12:13:00,53.5,44.0,30.11,South,190,0.0,14.0,71,0.00,,,0.07,weatherlink.com 1.10,2013-01-06 20:13:00,
2013-01-06 12:28:00,53.8,44.0,30.09,South,178,0.0,14.0,70,0.00,,,0.07,weatherlink.com 1.10,2013-01-06 20:28:00,
2013-01-06 12:43:00,52.9,44.0,30.09,WNW,291,10.0,16.0,72,0.00,,,0.07,weatherlink.com 1.10,2013-01-06 20:43:00,
2013-01-06 12:59:00,51.1,44.0,30.09,West,271,6.0,17.0,77,0.00,,,0.07,weatherlink.com 1.10,2013-01-06 20:59:00,
2013-01-06 13:14:00,50.5,45.0,30.07,SW,236,0.0,13.0,80,0.00,,,0.07,weatherlink.com 1.10,2013-01-06 21:14:00,
2013-01-06 13:29:00,51.7,46.0,30.06,WSW,237,7.0,10.0,80,0.00,,,0.07,weatherlink.com 1.10,2013-01-06 21:29:00,
2013-01-06 13:44:00,51.3,46.0,30.06,West,260,0.0,11.0,81,0.00,,,0.07,weatherlink.com 1.10,2013-01-06 21:44:00,
2013-01-06 13:59:00,51.3,45.0,30.06,WNW,285,2.0,13.0,78,0.00,,,0.07,weatherlink.com 1.10,2013-01-06 21:59:00,
2013-01-06 14:14:00,50.8,46.0,30.06,SSW,195,0.0,7.0,82,0.00,,,0.07,weatherlink.com 1.10,2013-01-06 22:14:00,
2013-01-06 14:29:00,50.2,46.0,30.05,SW,230,4.0,6.0,86,0.00,,,0.07,weatherlink.com 1.10,2013-01-06 22:29:00,
2013-01-06 14:44:00,50.2,46.0,30.05,SSW,196,0.0,9.0,85,0.00,,,0.07,weatherlink.com 1.10,2013-01-06 22:44:00,
2013-01-06 14:59:00,50.3,46.0,30.04,SSW,211,0.0,6.0,85,0.00,,,0.07,weatherlink.com 1.10,2013-01-06 22:59:00,
2013-01-06 15:14:00,50.6,47.0,30.04,WSW,254,0.0,4.0,86,0.00,,,0.07,weatherlink.com 1.10,2013-01-06 23:14:00,
2013-01-06 15:29:00,51.1,46.0,30.04,SSW,200,0.0,8.0,84,0.00,,,0.07,weatherlink.com 1.10,2013-01-06 23:29:00,
2013-01-06 15:44:00,50.8,45.0,30.04,SW,222,0.0,9.0,81,0.00,,,0.07,weatherlink.com 1.10,2013-01-06 23:44:00,
2013-01-06 15:59:00,50.6,46.0,30.03,SSW,208,0.0,3.0,83,0.00,,,0.07,weatherlink.com 1.10,2013-01-06 23:59:00,
2013-01-06 16:14:00,50.6,45.0,30.03,West,261,0.0,5.0,82,0.00,,,0.07,weatherlink.com 1.10,2013-01-07 00:14:00,
2013-01-06 16:29:00,50.6,46.0,30.03,WSW,243,0.0,4.0,83,0.00,,,0.07,weatherlink.com 1.10,2013-01-07 00:29:00,
2013-01-06 16:44:00,50.2,45.0,30.03,WSW,243,0.0,9.0,81,0.00,,,0.07,weatherlink.com 1.10,2013-01-07 00:44:00,
2013-01-06 16:59:00,49.9,45.0,30.03,WSW,248,0.0,6.0,82,0.00,,,0.07,weatherlink.com 1.10,2013-01-07 00:59:00,
2013-01-06 17:14:00,49.5,45.0,30.02,West,279,0.0,6.0,84,0.00,,,0.07,weatherlink.com 1.10,2013-01-07 01:14:00,
2013-01-06 17:29:00,49.0,45.0,30.02,West,260,0.0,4.0,85,0.00,,,0.07,weatherlink.com 1.10,2013-01-07 01:29:00,
2013-01-06 17:44:00,48.6,45.0,30.02,SW,215,0.0,0.0,86,0.00,,,0.07,weatherlink.com 1.10,2013-01-07 01:44:00,
2013-01-06 17:59:00,47.9,44.0,30.02,SW,215,0.0,0.0,87,0.00,,,0.07,weatherlink.com 1.10,2013-01-07 01:59:00,
2013-01-06 18:14:00,47.4,44.0,30.02,SW,215,0.0,0.0,88,0.00,,,0.07,weatherlink.com 1.10,2013-01-07 02:14:00,
2013-01-06 18:29:00,47.0,44.0,30.02,SW,215,0.0,0.0,89,0.00,,,0.07,weatherlink.com 1.10,2013-01-07 02:29:00,
2013-01-06 18:44:00,47.1,44.0,30.03,SW,215,0.0,0.0,90,0.00,,,0.07,weatherlink.com 1.10,2013-01-07 02:44:00,
2013-01-06 18:59:00,47.3,44.0,30.02,SW,215,0.0,0.0,89,0.00,,,0.07,weatherlink.com 1.10,2013-01-07 02:59:00,
2013-01-06 19:14:00,47.4,44.0,30.02,SW,215,0.0,0.0,89,0.00,,,0.07,weatherlink.com 1.10,2013-01-07 03:14:00,
2013-01-06 19:29:00,47.4,44.0,30.02,SW,215,0.0,0.0,89,0.00,,,0.07,weatherlink.com 1.10,2013-01-07 03:29:00,
2013-01-06 19:44:00,46.8,44.0,30.02,SW,215,0.0,0.0,88,0.00,,,0.07,weatherlink.com 1.10,2013-01-07 03:44:00,
2013-01-06 19:59:00,45.9,43.0,30.01,SW,215,0.0,0.0,90,0.00,,,0.07,weatherlink.com 1.10,2013-01-07 03:59:00,
2013-01-06 20:14:00,45.2,43.0,30.02,SW,215,0.0,0.0,90,0.00,,,0.07,weatherlink.com 1.10,2013-01-07 04:14:00,
2013-01-06 20:29:00,44.5,42.0,30.02,SW,215,0.0,0.0,90,0.00,,,0.07,weatherlink.com 1.10,2013-01-07 04:29:00,
2013-01-06 20:44:00,43.9,42.0,30.02,SW,215,0.0,0.0,91,0.00,,,0.07,weatherlink.com 1.10,2013-01-07 04:44:00,
2013-01-06 20:59:00,43.6,42.0,30.01,SW,215,0.0,0.0,93,0.00,,,0.07,weatherlink.com 1.10,2013-01-07 04:59:00,
2013-01-06 21:15:00,43.4,42.0,30.02,SW,215,0.0,0.0,93,0.00,,,0.07,weatherlink.com 1.10,2013-01-07 05:15:00,
2013-01-06 21:29:00,43.2,41.0,30.02,SW,215,0.0,0.0,93,0.00,,,0.07,weatherlink.com 1.10,2013-01-07 05:29:00,
2013-01-06 21:44:00,42.5,40.0,30.02,SW,215,0.0,0.0,92,0.00,,,0.07,weatherlink.com 1.10,2013-01-07 05:44:00,
2013-01-06 21:59:00,42.0,40.0,30.02,SW,215,0.0,0.0,93,0.00,,,0.07,weatherlink.com 1.10,2013-01-07 05:59:00,
2013-01-06 22:14:00,41.9,40.0,30.02,SW,215,0.0,0.0,94,0.00,,,0.07,weatherlink.com 1.10,2013-01-07 06:14:00,
2013-01-06 22:29:00,41.4,40.0,30.02,SW,215,0.0,0.0,94,0.00,,,0.07,weatherlink.com 1.10,2013-01-07 06:29:00,
2013-01-06 22:44:00,41.0,39.0,30.02,SW,215,0.0,0.0,94,0.00,,,0.07,weatherlink.com 1.10,2013-01-07 06:44:00,
2013-01-06 22:59:00,40.8,39.0,30.03,SW,215,0.0,0.0,94,0.00,,,0.07,weatherlink.com 1.10,2013-01-07 06:59:00,
2013-01-06 23:14:00,40.2,39.0,30.04,SW,215,0.0,0.0,94,0.00,,,0.07,weatherlink.com 1.10,2013-01-07 07:14:00,
2013-01-06 23:30:00,39.7,38.0,30.04,SW,215,0.0,0.0,94,0.00,,,0.07,weatherlink.com 1.10,2013-01-07 07:30:00,
2013-01-06 23:45:00,40.1,39.0,30.03,SW,215,0.0,0.0,96,0.00,,,0.07,weatherlink.com 1.10,2013-01-07 07:45:00,